Torna al catalogo

STARLINK-32165

AttivoComunicazioniVLEO
NORAD 60599·PAYLOAD·🇺🇸 United States

Lanciato Aug 20, 2024 da Cape Canaveral Space Force Station

Loading…

Prossimi Passaggi (prossime 24 ore)

TLE

AggiornatoSource: CelesTrak SupGP

Epoca: Sep 15, 2026, 02:08 UTC

1 60599C 24150S   26258.08937500 -.00034603  00000+0 -10223-2 0  2581
2 60599  53.1593 146.8606 0001282  95.0819 327.1806 15.34411207    19

Traccia STARLINK-32165 in tempo reale con AllMySat

Download on the App Store